Location: A�t Lahcen
(32.8243°N, 5.4246°W)
Time: 02:10:12
(UTC+00:00)

PSLV R/B - Pass Details

Date: 27 January 2021
Orbit: 504 x 577 km, 97.8° (Epoch: 26 February)

Event Time Altitude Azimuth Distance (km) Brightness Sun altitude
Rises 06:27:05 0° 6° (N) 2,754 7.3 -11.3°
Reaches altitude 10° 06:29:14 10° 1° (N) 1,864 6.4 -10.9°
Maximum altitude 06:33:10 53° 285° (WNW) 701 4.0 -10.1°
Drops below altitude 10° 06:37:09 10° 208° (SSW) 1,876 6.4 -9.3°
Sets 06:39:20 0° 203° (SSW) 2,773 7.3 -8.9°
